Weather in Morki

Russia / Mari El Republic     56°25′44″N   48°59′55″E
temp.,
°C
wind,
m/s
gust,
m/s
humid.,
%
clouds,
%
prec.,
mm/h
press.,
hPa
HPBL,
m
15 may, sat
sat1500:00+17sw228475 0.0 101815
03:00+16s1189100 0.0 101811
06:00+18ese1281100 0.0 101861
09:00+24s5851100 0.0 1017550
12:00+27ssw61135100 0.0 10171131
15:00+27ssw51238100 0.0 10161510
18:00+24s512467 0.0 1016622
21:00+21ssw4154937 0.0 1016412
16 may, sun
sun1600:00+16s311625 0.0 1016224
03:00+15s376664 0.0 1016129
06:00+18s3105993 0.0 1016265
09:00+24ssw484471 0.0 1016620
12:00+27ssw593523 0.0 10161355
15:00+28sw5123685 0.0 10151959
18:00+24sw2656100 0.0 1015181
21:00+18wsw228186 0.3 101623
17 may, mon
mon1700:00+16sw119276 0.3 101611
03:00+16wsw1194100 0.3 101711
06:00+18sw128592 0.0 1018122
09:00+23sw12638 0.0 1018632
12:00+27sw36375 0.0 10181671
15:00+28sw46375 0.0 10171555
18:00+25wsw11565 0.0 101732
21:00+20ese11677 0.0 101711
18 may, tue
tue1800:00+17sse117572 0.0 101711
03:00+16sw227027 0.0 101822
06:00+20ssw24595 0.0 1018117
09:00+26s23395 0.0 1017493
12:00+29s35328 0.0 10172348
15:00+29s45275 0.0 10163155
18:00+25s224782 0.0 101542
21:00+19se1156100 0.0 101611
19 may, wed
wed1900:00+18ese2254100 0.0 101611
03:00+17ese2454100 0.0 101673
06:00+19se3955100 0.0 1016211
09:00+25se4839100 0.0 1015474
12:00+28se6832100 0.0 10141234
15:00+29se69295 0.0 10133169
18:00+25se511454 0.0 1011604
21:00+21sw6115786 0.0 1013666